Regional Weather Roundup
Issued by NWS

Home | Current Version | Previous Version | Text Only | Print | Product List | Glossary On
Versions: 1 2 3 4 5 6 7 8 9 10 11 12 13 14 15 16 17 18 19 20 21 22 23 24 25 26 27 28 29 30 31 32 33 34 35 36 37 38 39 40 41 42 43 44 45 46 47 48 49 50
000
ASUS44 KFWD 252110
RWRTX
NORTH TEXAS HOURLY WEATHER ROUNDUP
NATIONAL WEATHER SERVICE FORT WORTH TX
400 PM CDT THU MAY 25 2017

NOTE: "FAIR" INDICATES FEW OR NO CLOUDS BELOW 12,000 FEET WITH NO
SIGNIFICANT WEATHER AND/OR OBSTRUCTIONS TO VISIBILITY.

TXZ118-119-252200-
DALLAS/FORT WORTH METROPLEX

CITY           SKY/WX    TMP DP  RH WIND       PRES   REMARKS
DFW AIRPORT    PTSUNNY   90  56  31 S25G37    29.60F
DALLAS LOVE    PTSUNNY   91  57  31 S26G33    29.62F
FTW MEACHAM    CLOUDY    92  55  28 S20G31    29.60F HX  90
DAL-EXECUTIVE  SUNNY     88  60  38 S13G25    29.62F
FTW-ALLIANCE   CLOUDY    89  54  30 S18G29    29.60F
FTW-NAS-JRB    CLOUDY    92  54  27 S20G33    29.61F HX  90
FTW-SPINKS     SUNNY     91  54  27 S22G37    29.64F
ARLINGTON      SUNNY     89  56  32 S22G33    29.62F
GRAND PRAIRIE  SUNNY     90  54  29 S16G28    29.64F
ADDISON        SUNNY     90  55  31 S18G36    29.62
MESQUITE       SUNNY     88  57  35 S15G30    29.64F
LANCASTER      SUNNY     89  60  37 S20G31    29.65F
$$

TXZ091>094-102>105-117-120-121-131>134-252200-
NORTH CENTRAL TEXAS

CITY           SKY/WX    TMP DP  RH WIND       PRES   REMARKS
SHRMAN/DENISON SUNNY     87  59  37 S18       29.62F
GAINESVILLE    SUNNY     91  55  30 S22G28    29.61
BOWIE          CLOUDY    91  56  30 S18G26    29.58F
BRIDGEPORT     PTSUNNY   92  54  27 S15G25    29.61F
DECATUR        MOSUNNY   92  55  28 S20G26    29.61F HX  90
DENTON         CLOUDY    91  57  31 S22G32    29.60F
MCKINNEY       SUNNY     90  60  36 S25G32    29.61F
BONHAM         SUNNY     86  59  39 S21G28    29.63F
GREENVILLE     SUNNY     90  61  37 S21G28    29.67F
ROCKWALL       SUNNY     88  63  42 S22G38    29.65F
TERRELL        SUNNY     89  61  38 S24G30    29.66F
WAXAHACHIE     SUNNY     87  61  42 S25G33    29.65F
CLEBURNE       CLOUDY    88  57  35 S18G26    29.65F
GRANBURY       CLOUDY    93  55  27 S20G28    29.62F HX  91
$$

TXZ083>090-098>101-113>116-127>130-139>142-154-155-252200-
WESTERN NORTH TEXAS

CITY           SKY/WX    TMP DP  RH WIND       PRES   REMARKS
WICHITA FALLS  MOSUNNY   93  57  29 S22G33    29.53F HX  91
WF-KICKAPOO    SUNNY     93  57  29 S14G28    29.56F HX  91
VERNON         SUNNY     97  40  14 S16G22    29.51F HX  92
ABILENE          N/A    N/A N/A N/A MISG      29.61F
ABILENE-DYESS  CLOUDY    96  57  26 S16       29.59F HX  95
GRAHAM         CLOUDY    95  59  30 S12G22    29.56F HX  94
BRECKENRIDGE   SUNNY     96  56  25 S22G28    29.59F HAZE    HX  94
CISCO          SUNNY     93  61  33 S21G28    29.63F HX  93
EASTLAND       SUNNY     93  60  33 S18G25    29.62S HX  93
RANGER         SUNNY    N/A N/A N/A S15G25    29.63F
MINERAL WELLS  CLOUDY    94  55  26 S20G30    29.59F HX  92
STEPHENVILLE   CLOUDY    91  55  30 S16G24    29.67F
COMANCHE       SUNNY     93  61  34 S14G26    29.65S HX  92
BROWNWOOD      SUNNY     95  57  28 S17G23    29.64F HX  94
COLEMAN        SUNNY     97  53  22 SW18G29   29.65F HX  95
$$

TXZ143>147-156>162-174-175-252200-
CENTRAL TEXAS

CITY           SKY/WX    TMP DP  RH WIND       PRES   REMARKS
WACO           SUNNY     91  61  36 S23G33    29.67F HX  91
WACO-TSTC      SUNNY     90  57  33 S23G32    29.69
WACO-MCGREGOR  SUNNY     90  61  37 S23G32    29.68F HX  90
HILLSBORO      SUNNY     90  62  39 S24G32    29.66F HX  90
CORSICANA      SUNNY     90  63  40 S23G31    29.69F HX  91
MEXIA          SUNNY     87  59  38 S22G30    29.69F
HEARNE         SUNNY     89  60  37 S16G26    29.72F
CAMERON        SUNNY     90  62  38 S20G30    29.71F HX  90
TEMPLE         SUNNY     90  61  37 S26G35    29.69F HX  90
KILLEEN        SUNNY     90  59  35 S17       29.68F
KILLEEN-SKYLRK SUNNY     91  62  37 S17G28    29.70F HX  91
FORT HOOD      SUNNY     91  60  35 S17G24    29.66F HX  91
HAMILTON       SUNNY     92  57  30 S25       29.68F HX  90
LAMPASAS       SUNNY     91  63  39 S15G22    29.69F HX  91
$$

TXZ095>097-106>112-122>126-135>138-148>153-164>167-252200-
EAST TEXAS

CITY           SKY/WX    TMP DP  RH WIND       PRES   REMARKS
PARIS          SUNNY     84  63  48 S20G26    29.68F
SULPHUR SPRNGS SUNNY     86  59  39 S17G23    29.70F
MOUNT PLEASANT SUNNY     86  60  40 S14       29.72S
GILMER         SUNNY     85  62  46 S15       29.71F
MINEOLA        SUNNY     86  63  45 S13G20    29.69F
TYLER          SUNNY     87  61  41 S21G30    29.71F
LONGVIEW       SUNNY     87  63  44 S18G24    29.72F
MARSHALL       SUNNY     85  60  41 S13       29.75F
ATHENS         SUNNY     86  61  42 S12G25    29.69F
PALESTINE      SUNNY     87  63  44 S13G18    29.74S
JACKSONVILLE   SUNNY     85  62  45 S13G18    29.76F
HENDERSON      SUNNY     86  60  42 S8G18     29.74F
CENTER         CLEAR     89  64  42 S15       29.77F HX  90
NACOGDOCHES    SUNNY     88  63  42 SW16G22   29.74F
LUFKIN         SUNNY     86  63  45 S10       29.76F
$$

SUPPLEMENTAL OBSERVATIONS (NWS FORT WORTH AREA)

CITY           SKY/WX    TMP DP  RH WIND       PRES   REMARKS
CADDO GRASSLND   N/A     86  57  37 S16G23      N/A
LBJ GRASSLAND    N/A     91  54  27 S16G26      N/A
POSSUM KINGDOM   N/A     97  59  28 S15G25      N/A  HX  96
GRANBURY         N/A     91  54  27 S22G29      N/A
MCGREGOR         N/A     91  59  33 S22G33      N/A  HX  90
TEMPLE           N/A     90  57  33 S23G30      N/A
$$

SUPPLEMENTAL OBSERVATIONS (NWS NORMAN AREA)

CITY           SKY/WX    TMP DP  RH WIND       PRES   REMARKS
GOODLETT         N/A    100  47  16 SE15      29.49F HX  96
ODELL            N/A     96  51  21 S14       29.52F HX  93
CROWELL          N/A    101  54  20 S16       29.50F HX  99
KNOX CITY        N/A    101  44  14 S20       29.52F HX  97
SEYMOUR          N/A     98  50  19 S15G23    29.52F HX  94
$$

SUPPLEMENTAL OBSERVATIONS (NWS SAN ANGELO AREA)

CITY           SKY/WX    TMP DP  RH WIND       PRES   REMARKS
HASKELL          N/A     99  41  13 S17G24    29.55F HX  95
THROCKMORTON     N/A     95  59  29 S12       29.57F HX  95
STAMFORD         N/A    100  52  20 S16       29.57F HX  97
CLYDE            N/A     92  59  32 S16G23    29.64F HX  91
$$

SUPPLEMENTAL OBSERVATIONS (NWS SHREVEPORT AREA)

CITY           SKY/WX    TMP DP  RH WIND       PRES   REMARKS
TEXARKANA        N/A     84  61  45 S6G15       N/A
LINDEN           N/A     88  59  37 S7G16       N/A
LUFKIN           N/A    N/A N/A N/A MISG        N/A
$$

SUPPLEMENTAL OBSERVATIONS ARE A COLLECTION OF AUTOMATED INSTRUMENTS
THAT ARE MAINTAINED BY A VARIETY OF FEDERAL AND STATE AGENCIES.
CERTAIN ELEMENTS...SUCH AS HUMIDITY VALUES AND SUSTAINED WIND
SPEEDS...MAY BE APPROXIMATED.





USA.gov is the U.S. government's official web portal to all federal, state and local government web resources and services.